This is the latest recevied weather packets stored in our database for station/object K4GSL. If no packets are shown the sender has not sent any weather packets the latest 1 day(s).
| Time | Temp. | Humidity | Pressure | Rain* | Wind** | Luminosity | Snow |
|---|---|---|---|---|---|---|---|
| 1778036609 | 18.89° C | 72% | 1019.6 hPa | 0 mm | 0 m/s | 20 W/m² | - |
| 1778036305 | 18.89° C | 72% | 1019.7 hPa | 0 mm | 0 m/s | 20 W/m² | - |
| 1778036001 | 18.89° C | 72% | 1019.6 hPa | 0 mm | 0 m/s | 20 W/m² | - |
| 1778035699 | 18.89° C | 72% | 1019.7 hPa | 0 mm | 0 m/s | 20 W/m² | - |
| 1778035395 | 18.89° C | 72% | 1019.5 hPa | 0 mm | 0 m/s | 20 W/m² | - |
| 1778035092 | 18.89° C | 72% | 1019.5 hPa | 0 mm | 0 m/s | 20 W/m² | - |
| 1778034789 | 18.89° C | 72% | 1019.5 hPa | 0 mm | 0 m/s | 30 W/m² | - |
| 1778034485 | 18.89° C | 72% | 1019.6 hPa | 0 mm | 0 m/s | 30 W/m² | - |
| 1778034183 | 18.89° C | 72% | 1019.6 hPa | 0 mm | 0 m/s | 30 W/m² | - |
| 1778033881 | 18.89° C | 72% | 1019.5 hPa | 0 mm | 0 m/s | 30 W/m² | - |
| 1778033578 | 18.89° C | 72% | 1019.4 hPa | 0 mm | 0 m/s | 29 W/m² | - |
| 1778033274 | 19.44° C | 71% | 1019.5 hPa | 0 mm | 0.45 m/s, 90° | 31 W/m² | - |
| 1778032972 | 18.89° C | 71% | 1019.7 hPa | 0 mm | 0.45 m/s, 90° | 39 W/m² | - |
| 1778032670 | 19.44° C | 70% | 1019.5 hPa | 0 mm | 0 m/s | 38 W/m² | - |
| 1778032373 | 20° C | 69% | 1019.6 hPa | 0 mm | 0 m/s | 41 W/m² | - |
| 1778032064 | 19.44° C | 70% | 1019.6 hPa | 0 mm | 0.45 m/s, 91° | 53 W/m² | - |
| 1778031760 | 19.44° C | 70% | 1019.5 hPa | 0 mm | 0.45 m/s, 91° | 53 W/m² | - |
| 1778031457 | 18.89° C | 73% | 1019.5 hPa | 0 mm | 0 m/s | 92 W/m² | - |
| 1778031155 | 18.89° C | 72% | 1019.5 hPa | 0 mm | 0.45 m/s, 90° | 95 W/m² | - |
| 1778030850 | 18.89° C | 72% | 1019.5 hPa | 0 mm | 0.45 m/s, 91° | 123 W/m² | - |
| 1778030548 | 18.89° C | 71% | 1019.4 hPa | 0 mm | 0.45 m/s, 92° | 132 W/m² | - |
| 1778030245 | 18.89° C | 72% | 1019.6 hPa | 0 mm | 0 m/s | 144 W/m² | - |
| 1778029941 | 18.33° C | 73% | 1019.5 hPa | 0 mm | 0 m/s | 45 W/m² | - |
| 1778029640 | 18.89° C | 73% | 1019.3 hPa | 0 mm | 0 m/s | 46 W/m² | - |
| 1778029337 | 18.33° C | 73% | 1019.5 hPa | 0 mm | 0.89 m/s, 92° | 65 W/m² | - |
* Rain latest hour (hover to see other rain measurements)
** Current wind speed in m/s (hover to see current wind gust speed)